Terug naar catalogus

COSMOS 651 DEB

LostLEO
NORAD 44566·DEBRIS·🇷🇺 Russia

Gelanceerd May 15, 1974 vanaf Baikonur Cosmodrome

Loading…

Volgende Passages (komende 24 uur)

TLE

VerouderdSource: Space-Track

Epoch: Jun 16, 2020, 18:10 UTC

1 44566U 74029E   20168.75710572  .00001446  00000-0  10836-2 0  9993
2 44566  64.9700 308.6986 0021745  32.9772 327.2646 13.97800911146709

Volg COSMOS 651 DEB in realtime met AllMySat

Download on the App Store